| time (UTC) | temp F | wind direction | speed knots | gust knots | rain 1hr in | rain 24hr in | rain mn in | humidity % | barometer mb |
| 20260505170038 | 61 | 278 | 11.3 | 22.6 | 0.00 | 0.00 | 0.00 | 70 | 1014.2 |
| 20260505164535 | 60 | 280 | 11.3 | 20.0 | 0.00 | 0.00 | 0.00 | 71 | 1014.2 |
| 20260505163032 | 60 | 275 | 11.3 | 22.6 | 0.00 | 0.00 | 0.00 | 72 | 1014.1 |
| 20260505161606 | 59 | 275 | 10.4 | 21.7 | 0.00 | 0.00 | 0.00 | 74 | 1014.2 |
| 20260505153035 | 58 | 253 | 8.7 | 19.1 | 0.00 | 0.00 | 0.00 | 76 | 1014.2 |
| 20260505151641 | 58 | 249 | 8.7 | 21.7 | 0.00 | 0.00 | 0.00 | 77 | 1014.0 |
| 20260505150140 | 58 | 252 | 7.8 | 20.9 | 0.00 | 0.00 | 0.00 | 77 | 1014.0 |
| 20260505124608 | 55 | 259 | 7.0 | 19.1 | 0.00 | 0.00 | 0.00 | 82 | 1012.7 |
| 20260505123037 | 55 | 263 | 8.7 | 17.4 | 0.00 | 0.00 | 0.00 | 81 | 1012.6 |
| 20260505121608 | 56 | 262 | 7.8 | 19.1 | 0.00 | 0.00 | 0.00 | 81 | 1012.6 |
| 20260505120031 | 56 | 255 | 7.0 | 13.0 | 0.00 | 0.00 | 0.00 | 81 | 1012.4 |
| 20260505114534 | 56 | 259 | 5.2 | 11.3 | 0.00 | 0.00 | 0.00 | 81 | 1012.4 |
| 20260505111532 | 56 | 256 | 5.2 | 9.6 | 0.00 | 0.00 | 0.00 | 79 | 1012.3 |
| 20260505101539 | 57 | 250 | 6.1 | 15.6 | 0.00 | 0.00 | 0.00 | 78 | 1012.0 |
| 20260505093032 | 59 | 254 | 7.0 | 14.8 | 0.00 | 0.00 | 0.00 | 76 | 1011.8 |
| 20260505091530 | 60 | 245 | 6.1 | 14.8 | 0.00 | 0.00 | 0.00 | 75 | 1011.7 |
| 20260505090030 | 60 | 248 | 6.1 | 12.2 | 0.00 | 0.00 | 0.00 | 74 | 1011.5 |
| 20260505084536 | 61 | 247 | 6.1 | 14.8 | 0.00 | 0.00 | 0.00 | 74 | 1011.5 |
| 20260505083029 | 61 | 248 | 6.1 | 15.6 | 0.00 | 0.00 | 0.00 | 74 | 1011.5 |
| 20260505081530 | 62 | 249 | 6.1 | 13.9 | 0.00 | 0.00 | 0.00 | 74 | 1011.3 |
| 20260505080030 | 62 | 240 | 6.1 | 15.6 | 0.00 | 0.00 | 0.00 | 74 | 1011.3 |
| 20260505074530 | 63 | 245 | 7.0 | 16.5 | 0.00 | 0.00 | 0.00 | 73 | 1011.2 |
| 20260505073033 | 63 | 242 | 7.0 | 14.8 | 0.00 | 0.00 | 0.00 | 73 | 1011.1 |
| 20260505071543 | 64 | 247 | 7.0 | 13.0 | 0.00 | 0.00 | 0.00 | 72 | 1011.0 |
| 20260505070031 | 64 | 245 | 6.1 | 13.0 | 0.00 | 0.00 | 0.00 | 70 | 1010.9 |
| 20260505064608 | 65 | 247 | 6.1 | 13.0 | 0.00 | 0.00 | 0.00 | 70 | 1010.8 |
| 20260505063034 | 65 | 255 | 7.0 | 13.0 | 0.00 | 0.00 | 0.00 | 69 | 1010.7 |
| 20260505061535 | 65 | 258 | 6.1 | 13.0 | 0.00 | 0.00 | 0.00 | 68 | 1010.7 |
| 20260505060142 | 66 | 259 | 5.2 | 11.3 | 0.00 | 0.00 | 0.00 | 67 | 1010.6 |
| 20260505054607 | 66 | 247 | 6.1 | 15.6 | 0.00 | 0.00 | 0.00 | 66 | 1010.6 |
| 20260505053031 | 66 | 252 | 6.1 | 13.0 | 0.00 | 0.00 | 0.00 | 65 | 1010.6 |
| 20260505051530 | 66 | 254 | 5.2 | 12.2 | 0.00 | 0.00 | 0.00 | 63 | 1010.5 |
| 20260505040048 | 68 | 271 | 4.3 | 10.4 | 0.00 | 0.00 | 0.00 | 59 | 1009.7 |
| 20260505034534 | 68 | 273 | 5.2 | 11.3 | 0.00 | 0.00 | 0.00 | 58 | 1009.5 |
| 20260505033107 | 68 | 266 | 5.2 | 11.3 | 0.00 | 0.00 | 0.00 | 58 | 1009.3 |
| 20260505031608 | 68 | 258 | 4.3 | 9.6 | 0.00 | 0.00 | 0.00 | 57 | 1009.2 |
| 20260505030037 | 69 | 263 | 3.5 | 8.7 | 0.00 | 0.00 | 0.00 | 56 | 1009.0 |
| 20260505024531 | 70 | 247 | 4.3 | 12.2 | 0.00 | 0.00 | 0.00 | 55 | 1008.9 |
| 20260505023030 | 71 | 237 | 4.3 | 11.3 | 0.00 | 0.00 | 0.00 | 54 | 1009.0 |
| 20260505021531 | 72 | 232 | 4.3 | 8.7 | 0.00 | 0.00 | 0.00 | 53 | 1009.0 |
| 20260505020035 | 73 | 229 | 3.5 | 12.2 | 0.00 | 0.00 | 0.00 | 52 | 1009.0 |
| 20260505014532 | 74 | 218 | 3.5 | 13.9 | 0.00 | 0.00 | 0.00 | 51 | 1009.0 |
| 20260505013031 | 74 | 233 | 4.3 | 15.6 | 0.00 | 0.00 | 0.00 | 51 | 1008.9 |
| 20260505010035 | 74 | 243 | 5.2 | 14.8 | 0.00 | 0.00 | 0.00 | 51 | 1008.8 |
| 20260505004529 | 74 | 241 | 7.8 | 20.0 | 0.00 | 0.00 | 0.00 | 49 | 1008.8 |
| 20260505003032 | 75 | 252 | 9.6 | 20.0 | 0.00 | 0.00 | 0.00 | 48 | 1008.7 |
| 20260505001535 | 76 | 259 | 10.4 | 21.7 | 0.00 | 0.00 | 0.00 | 46 | 1008.5 |
| 20260505000036 | 76 | 264 | 10.4 | 20.9 | 0.00 | 0.00 | 0.00 | 46 | 1008.5 |
| 20260504234532 | 77 | 272 | 10.4 | 20.9 | 0.00 | 0.00 | 0.00 | 45 | 1008.5 |
| 20260504233037 | 77 | 279 | 10.4 | 20.0 | 0.00 | 0.00 | 0.00 | 45 | 1008.4 |
| 20260504231535 | 77 | 279 | 11.3 | 20.9 | 0.00 | 0.00 | 0.00 | 45 | 1008.4 |
| 20260504230037 | 77 | 276 | 10.4 | 20.0 | 0.00 | 0.00 | 0.00 | 45 | 1008.5 |
| 20260504224537 | 77 | 280 | 10.4 | 21.7 | 0.00 | 0.00 | 0.00 | 45 | 1008.7 |
| 20260504223031 | 77 | 283 | 9.6 | 20.0 | 0.00 | 0.00 | 0.00 | 46 | 1008.9 |
| 20260504221532 | 77 | 279 | 9.6 | 24.3 | 0.00 | 0.00 | 0.00 | 46 | 1009.0 |
| 20260504220028 | 77 | 279 | 10.4 | 19.1 | 0.00 | 0.00 | 0.00 | 46 | 1009.0 |
| 20260504214531 | 76 | 280 | 9.6 | 20.9 | 0.00 | 0.00 | 0.00 | 46 | 1009.1 |
| 20260504213030 | 76 | 280 | 11.3 | 23.5 | 0.00 | 0.00 | 0.00 | 46 | 1009.3 |
| 20260504211649 | 77 | 280 | 9.6 | 21.7 | 0.00 | 0.00 | 0.00 | 46 | 1009.6 |
| 20260504204532 | 77 | 273 | 7.0 | 14.8 | 0.00 | 0.00 | 0.00 | 45 | 1009.9 |
| 20260504203031 | 77 | 265 | 5.2 | 15.6 | 0.00 | 0.00 | 0.00 | 45 | 1010.1 |
| 20260504200105 | 75 | 265 | 4.3 | 12.2 | 0.00 | 0.00 | 0.00 | 47 | 1010.4 |
| 20260504194532 | 74 | 273 | 6.1 | 14.8 | 0.00 | 0.00 | 0.00 | 49 | 1010.4 |
| 20260504191646 | 73 | 269 | 7.8 | 17.4 | 0.00 | 0.00 | 0.00 | 50 | 1010.7 |
| 20260504190038 | 73 | 277 | 7.0 | 16.5 | 0.00 | 0.00 | 0.00 | 52 | 1010.8 |
| 20260504184533 | 73 | 266 | 4.3 | 12.2 | 0.00 | 0.00 | 0.00 | 52 | 1011.0 |
| 20260504183042 | 73 | 286 | 3.5 | 10.4 | 0.00 | 0.00 | 0.00 | 53 | 1011.0 |
| 20260504181530 | 73 | 272 | 3.5 | 9.6 | 0.00 | 0.00 | 0.00 | 53 | 1011.1 |
| 20260504180037 | 72 | 269 | 2.6 | 7.8 | 0.00 | 0.00 | 0.00 | 55 | 1011.1 |
| 20260504174532 | 72 | 260 | 6.1 | 14.8 | 0.00 | 0.00 | 0.00 | 55 | 1011.0 |
| 20260504173107 | 71 | 268 | 6.1 | 11.3 | 0.00 | 0.00 | 0.00 | 55 | 1011.0 |
| 20260504171531 | 71 | 272 | 6.1 | 13.9 | 0.00 | 0.00 | 0.00 | 57 | 1011.0 |